[[{"header":{"parameterUnit":"m.s-1","parameterCategory":1,"la1":30.2991,"la2":30.254,"lo1":-89.0895,"lo2":-89.0444,"dy":0.0017,"dx":0.0017,"nx":28,"ny":28,"refTime":"2024-04-06T21:00:00:Z","depth":0,"parameterNumber":2,"parameterNumberName":"U-component_of_WINDS"},"data":[0,0,0,0,0,0,0,0,0,0,0,0,0,0,0,0,0,0,0,0,0,0,0,0,0,0,0,0,0,0,0,0,0,0,0,0,0,0,0,0,0,0,0,0,0,0,0,0,0,0,0,0,0,0,0,0,0,0,-1.6048,-1.6048,0,-1.6047,-1.6047,-1.6047,-1.6041,-1.604,-1.604,-1.604,-1.6039,-1.6039,-1.6039,0,0,0,0,0,0,0,0,0,0,0,0,0,-1.6046,-1.6046,-1.6048,-1.6048,-1.6048,-1.6047,-1.6047,-1.6047,-1.6041,-1.604,-1.604,-1.604,-1.6039,-1.6039,-1.6039,0,0,0,0,0,0,0,0,0,0,0,0,0,-1.6046,-1.6046,-1.6048,-1.6045,-1.6044,-1.6047,-1.6047,-1.6047,-1.6041,-1.604,-1.604,-1.604,-1.6039,-1.6039,-1.6039,-1.6045,0,0,-1.604,-1.604,0,0,0,0,0,0,0,0,-1.6046,-1.6046,-1.6045,-1.6045,-1.6045,-1.6044,-1.6046,-1.6046,-1.6041,-1.6042,-1.604,-1.604,-1.6041,-1.6041,-1.6041,-1.6045,-1.6045,-1.604,-1.604,-1.604,-1.604,0,0,0,0,0,0,0,-1.6046,-1.6046,-1.6047,-1.6045,-1.6045,-1.6044,-1.6043,-1.6046,-1.6043,-1.6042,-1.6041,-1.6041,-1.6041,-1.6041,-1.6041,-1.6045,-1.604,-1.604,-1.604,-1.604,-1.6053,-1.6053,0,0,0,0,0,0,-1.6046,-1.6046,-1.6047,-1.6047,-1.6045,-1.6044,-1.6044,-1.6044,-1.6043,-1.6042,-1.6042,-1.6041,-1.6041,-1.6041,-1.6041,-1.6047,-1.604,-1.604,-1.604,-1.6053,-1.6053,-1.6053,0,0,0,0,0,0,-1.6046,-1.6046,-1.6048,-1.6047,-1.6047,-1.6044,-1.6045,-1.6044,-1.6044,-1.6042,-1.6042,-1.6042,-1.6041,-1.6041,-1.6044,-1.6047,-1.604,-1.6041,-1.6053,-1.6053,-1.6053,-1.606,0,0,0,0,0,0,-1.6046,-1.6046,-1.6048,-1.6047,-1.6047,-1.605,-1.6045,-1.6044,-1.6045,-1.6044,-1.6043,-1.6043,-1.604,-1.6044,-1.6044,-1.6047,-1.6041,-1.6052,-1.6053,-1.6053,-1.6059,-1.606,-1.6061,0,0,0,0,0,-1.6046,-1.605,-1.6048,-1.6049,-1.6049,-1.605,-1.605,-1.6048,-1.6045,-1.6047,-1.6046,-1.6043,-1.6047,-1.6044,-1.6045,-1.6048,-1.6052,-1.6053,-1.6053,-1.6059,-1.606,-1.6061,0,0,0,0,0,0,-1.6052,-1.605,-1.6048,-1.6051,-1.6051,-1.6049,-1.6052,-1.6049,-1.605,-1.6049,-1.6046,-1.6046,-1.605,-1.6049,-1.6046,-1.6053,-1.6049,-1.605,-1.6053,-1.6054,-1.6055,-1.6055,-1.6041,0,0,0,0,0,-1.6054,-1.6055,-1.6053,-1.6057,-1.6057,-1.6054,-1.6055,-1.6053,-1.6052,-1.6052,-1.6051,-1.6051,-1.6053,-1.6054,-1.6055,-1.6059,-1.6059,-1.6062,-1.6063,-1.6064,-1.6064,-1.6067,-1.6068,-1.6055,-1.6055,-1.6055,0,0,-1.6057,-1.6056,-1.6057,-1.6058,-1.6057,-1.6059,-1.6054,-1.6056,-1.6057,-1.6053,-1.6056,-1.6055,-1.6055,-1.6059,-1.6061,-1.6058,-1.6068,-1.6064,-1.6065,-1.6065,-1.6067,-1.6069,-1.607,-1.6056,-1.6056,-1.6056,0,0,-1.6065,-1.6064,-1.6067,-1.6066,-1.6066,-1.6064,-1.6065,-1.6064,-1.6063,-1.6066,-1.6063,-1.6065,-1.6067,-1.6067,-1.6067,-1.6075,-1.6072,-1.6076,-1.6081,-1.6083,-1.6084,-1.6085,-1.6088,-1.6089,-1.6076,-1.6076,-1.6076,0,-1.6069,-1.6071,-1.6068,-1.6071,-1.6071,-1.6067,-1.607,-1.607,-1.607,-1.607,-1.6068,-1.6071,-1.6071,-1.6075,-1.6077,-1.6077,-1.6078,-1.6076,-1.6084,-1.6085,-1.6086,-1.6088,-1.6089,-1.6077,-1.6077,-1.6077,-1.6077,0,-1.6077,-1.6078,-1.6081,-1.6081,-1.6081,-1.6084,-1.6082,-1.6083,-1.6081,-1.608,-1.6083,-1.6083,-1.6084,-1.6085,-1.6083,-1.6089,-1.6087,-1.6085,-1.6081,-1.6087,-1.609,-1.6091,-1.6077,-1.6077,-1.6077,-1.6077,0,0,-1.6087,-1.6086,-1.6087,-1.6087,-1.6086,-1.6088,-1.609,-1.6091,-1.6092,-1.6093,-1.6095,-1.6097,-1.6095,-1.6095,-1.6093,-1.6096,-1.6102,-1.6093,-1.6093,-1.6094,-1.6108,-1.611,-1.6111,-1.6101,-1.6101,-1.6101,-1.6108,0,-1.6094,-1.6098,-1.6096,-1.61,-1.6102,-1.6099,-1.6101,-1.6101,-1.61,-1.6102,-1.6101,-1.6102,-1.6099,-1.6099,-1.6102,-1.6101,-1.6105,-1.61,-1.6102,-1.6103,-1.6102,-1.6112,-1.6114,-1.6121,-1.6109,-1.6109,-1.6109,0,-1.6102,-1.6103,-1.6108,-1.6107,-1.6107,-1.611,-1.611,-1.6112,-1.6112,-1.6111,-1.6112,-1.611,-1.6113,-1.6109,-1.6113,-1.611,-1.6111,-1.611,-1.6111,-1.611,-1.6106,-1.6112,-1.6123,-1.6124,-1.6111,-1.6111,-1.6111,0,-1.6109,-1.6111,-1.6114,-1.6115,-1.6114,-1.6116,-1.6115,-1.6115,-1.6116,-1.6117,-1.6118,-1.6119,-1.612,-1.6121,-1.6119,-1.6117,-1.6123,-1.6119,-1.6123,-1.6123,-1.6124,-1.6124,-1.6135,-1.6125,-1.6125,-1.6125,-1.6125,0,-1.6117,-1.612,-1.6118,-1.6119,-1.6123,-1.612,-1.6124,-1.6123,-1.6123,-1.6125,-1.6123,-1.6125,-1.6122,-1.6124,-1.6123,-1.6126,-1.6127,-1.6126,-1.6126,-1.6126,-1.6126,-1.6127,-1.6126,-1.6125,-1.6125,-1.6125,-1.6125,0,-1.6125,-1.6124,-1.6127,-1.6126,-1.6126,-1.6129,-1.6128,-1.613,-1.6129,-1.6131,-1.6132,-1.6131,-1.6132,-1.6131,-1.6133,-1.6132,-1.6137,-1.6136,-1.6137,-1.6136,-1.614,-1.6139,-1.6151,-1.6152,-1.6142,-1.6142,-1.6142,0,-1.613,-1.6132,-1.6132,-1.6133,-1.6133,-1.6135,-1.6135,-1.6133,-1.6134,-1.6135,-1.6137,-1.6139,-1.614,-1.6143,-1.6142,-1.6144,-1.6143,-1.6147,-1.6143,-1.6144,-1.6143,-1.6143,-1.6143,-1.6148,-1.6148,-1.6148,-1.6148,0,-1.6139,-1.6138,-1.614,-1.6141,-1.6142,-1.6142,-1.6143,-1.6144,-1.6142,-1.6143,-1.6145,-1.6146,-1.6148,-1.615,-1.6151,-1.6151,-1.6149,-1.6149,-1.615,-1.615,-1.6151,-1.615,-1.6138,-1.6149,-1.6149,-1.6149,-1.6149,-1.6149,-1.6146,-1.6148,-1.6148,-1.6149,-1.6149,-1.615,-1.6152,-1.6151,-1.6152,-1.6154,-1.6153,-1.6155,-1.6155,-1.6157,-1.6157,-1.6159,-1.6158,-1.6159,-1.6159,-1.6159,-1.616,-1.6151,-1.616,-1.616,-1.616,-1.616,-1.616,0,-1.6155,-1.6154,-1.6156,-1.6157,-1.6158,-1.6156,-1.6156,-1.6158,-1.616,-1.616,-1.6161,-1.6164,-1.6165,-1.6165,-1.6167,-1.6168,-1.6167,-1.6169,-1.6168,-1.6168,-1.6161,-1.616,-1.6169,-1.6169,-1.6169,-1.6169,-1.6169,-1.6169,-1.6159,-1.6162,-1.6161,-1.6165,-1.6164,-1.6166,-1.6167,-1.6168,-1.6168,-1.6171,-1.6172,-1.6172,-1.6172,-1.6174,-1.6175,-1.6175,-1.6176,-1.6177,-1.6177,-1.617,-1.6169,-1.6168,-1.6167,-1.6177,-1.6178,-1.6184,-1.6184,-1.6184]},{"header":{"parameterUnit":"m.s-1","parameterCategory":1,"la1":30.2991,"la2":30.254,"lo1":-89.0895,"lo2":-89.0444,"dy":0.0017,"dx":0.0017,"nx":28,"ny":28,"refTime":"2024-04-06T21:00:00:Z","depth":0,"parameterNumber":3,"parameterNumberName":"V-component_of_WINDS"},"data":[0,0,0,0,0,0,0,0,0,0,0,0,0,0,0,0,0,0,0,0,0,0,0,0,0,0,0,0,0,0,0,0,0,0,0,0,0,0,0,0,0,0,0,0,0,0,0,0,0,0,0,0,0,0,0,0,0,0,5.1736,5.1735,0,5.1648,5.1647,5.1646,5.1534,5.1532,5.153,5.1529,5.1438,5.1437,5.1436,0,0,0,0,0,0,0,0,0,0,0,0,0,5.1808,5.1807,5.1736,5.1735,5.1734,5.1648,5.1646,5.1645,5.1534,5.1532,5.153,5.1528,5.1438,5.1437,5.1436,0,0,0,0,0,0,0,0,0,0,0,0,0,5.1754,5.1807,5.1736,5.1668,5.1661,5.1648,5.1646,5.1645,5.1535,5.1532,5.1529,5.1527,5.1438,5.1437,5.1436,5.1483,0,0,5.1433,5.1432,0,0,0,0,0,0,0,0,5.1757,5.1752,5.1679,5.1673,5.1665,5.1599,5.1638,5.1591,5.1535,5.1583,5.1529,5.1526,5.1494,5.1488,5.1477,5.1478,5.1475,5.1433,5.1432,5.1431,5.1431,0,0,0,0,0,0,0,5.1761,5.1755,5.1701,5.1678,5.167,5.1642,5.1631,5.1629,5.1554,5.1578,5.157,5.1561,5.1489,5.1478,5.1474,5.1473,5.1433,5.1432,5.1431,5.143,5.1508,5.151,0,0,0,0,0,0,5.1775,5.1759,5.1704,5.1698,5.1705,5.1643,5.1631,5.1623,5.1554,5.1541,5.1564,5.1556,5.1482,5.1476,5.1471,5.152,5.1431,5.143,5.143,5.1505,5.1508,5.1511,0,0,0,0,0,0,5.1777,5.1771,5.1707,5.1726,5.1716,5.1644,5.1636,5.1623,5.1612,5.1543,5.1529,5.1566,5.1479,5.1472,5.148,5.1516,5.143,5.1429,5.1502,5.1506,5.151,5.1621,0,0,0,0,0,0,5.178,5.1773,5.179,5.1727,5.1715,5.1719,5.1638,5.1623,5.161,5.16,5.1542,5.1529,5.1477,5.1483,5.1479,5.1512,5.1428,5.1498,5.1504,5.1509,5.1614,5.1628,5.164,0,0,0,0,0,5.1783,5.1825,5.1791,5.1785,5.1735,5.1722,5.1715,5.1653,5.1613,5.163,5.1585,5.1531,5.1512,5.1485,5.148,5.1513,5.1496,5.1502,5.1508,5.1608,5.1625,5.164,0,0,0,0,0,0,5.1893,5.1815,5.1777,5.18,5.1769,5.1703,5.1722,5.1674,5.1653,5.1644,5.1568,5.1556,5.1574,5.1544,5.1514,5.1554,5.1496,5.1502,5.1573,5.1589,5.1603,5.161,5.1427,0,0,0,0,0,5.192,5.1916,5.1848,5.1875,5.186,5.1794,5.1786,5.1741,5.1705,5.1691,5.1647,5.1614,5.16,5.1593,5.1577,5.1609,5.1594,5.1629,5.1643,5.1654,5.166,5.1674,5.1689,5.1532,5.1532,5.1531,0,0,5.1976,5.1933,5.1935,5.1896,5.1866,5.1863,5.1784,5.1784,5.1781,5.1691,5.1696,5.1663,5.1621,5.1642,5.1648,5.1617,5.17,5.1662,5.1671,5.1671,5.1682,5.1697,5.171,5.1536,5.1535,5.1534,0,0,5.2076,5.2043,5.2062,5.2033,5.1989,5.1945,5.1949,5.1891,5.1865,5.1869,5.1802,5.1797,5.1775,5.1748,5.1731,5.1821,5.1771,5.1818,5.1888,5.1903,5.1916,5.1926,5.1959,5.1971,5.1824,5.1824,5.1824,0,5.2151,5.2144,5.2078,5.2082,5.2067,5.1985,5.2004,5.1979,5.1932,5.1923,5.1889,5.186,5.1826,5.1839,5.1861,5.185,5.1853,5.1824,5.1919,5.1929,5.1938,5.1968,5.198,5.183,5.1829,5.1829,5.1828,0,5.2239,5.2235,5.2255,5.2212,5.2199,5.221,5.2145,5.214,5.2096,5.2055,5.2061,5.2017,5.199,5.199,5.1947,5.1997,5.1979,5.1933,5.1873,5.196,5.1987,5.1998,5.1839,5.1837,5.1835,5.1833,0,0,5.2407,5.2326,5.2335,5.2314,5.2259,5.2254,5.2262,5.2236,5.2233,5.2203,5.2207,5.219,5.2148,5.2129,5.2082,5.2096,5.217,5.2048,5.2046,5.2073,5.2221,5.2257,5.2271,5.2136,5.2138,5.2139,5.2225,0,5.2497,5.2505,5.2446,5.247,5.2466,5.2388,5.2394,5.2361,5.2323,5.2314,5.2271,5.2261,5.2205,5.2194,5.2203,5.2159,5.2199,5.2152,5.2139,5.2139,5.2153,5.2285,5.2322,5.2405,5.2235,5.2237,5.2238,0,5.2603,5.258,5.2604,5.2547,5.2543,5.255,5.2521,5.2513,5.2474,5.2445,5.2424,5.2371,5.2374,5.2317,5.232,5.229,5.2281,5.2258,5.226,5.2257,5.2195,5.2285,5.243,5.2443,5.2254,5.2252,5.2251,0,5.2724,5.2698,5.2709,5.2693,5.2627,5.2634,5.2607,5.2565,5.2553,5.2528,5.2519,5.2495,5.2482,5.2464,5.2405,5.2369,5.2415,5.2353,5.2392,5.2393,5.2405,5.2405,5.2551,5.2399,5.2399,5.2399,5.2399,0,5.2831,5.285,5.2762,5.2769,5.2787,5.2717,5.2737,5.2702,5.2665,5.2664,5.2595,5.2595,5.2517,5.2509,5.2463,5.2472,5.2467,5.2444,5.2431,5.245,5.2453,5.2444,5.2436,5.2402,5.2401,5.2401,5.24,0,5.297,5.2912,5.2919,5.2856,5.284,5.2856,5.2802,5.2805,5.2763,5.2762,5.2758,5.2691,5.2677,5.2617,5.2589,5.2558,5.2583,5.2558,5.2597,5.2589,5.2631,5.2628,5.2776,5.2792,5.263,5.2632,5.2633,0,5.3042,5.3054,5.2993,5.2987,5.2963,5.2954,5.2942,5.2874,5.2863,5.2819,5.2828,5.2809,5.279,5.2771,5.272,5.2698,5.2673,5.2726,5.2669,5.2688,5.2674,5.2675,5.2675,5.2739,5.2741,5.2743,5.2744,0,5.3178,5.3148,5.3133,5.3108,5.3095,5.3072,5.3044,5.3043,5.2968,5.296,5.2945,5.293,5.2901,5.2883,5.2852,5.2824,5.2772,5.2762,5.277,5.279,5.2812,5.2801,5.2631,5.2759,5.2758,5.2757,5.2756,5.2755,5.3285,5.3292,5.325,5.3235,5.3207,5.3183,5.3184,5.3141,5.3128,5.3099,5.3059,5.305,5.3009,5.2963,5.2938,5.293,5.29,5.2912,5.2914,5.2918,5.2928,5.2813,5.2924,5.2923,5.2923,5.2922,5.2922,0,5.3418,5.3386,5.3373,5.3337,5.3326,5.3277,5.3244,5.3238,5.323,5.3197,5.318,5.3162,5.3144,5.3092,5.3068,5.3071,5.3047,5.3067,5.3067,5.3061,5.2955,5.2951,5.3088,5.3088,5.3088,5.3087,5.3087,5.3087,5.3485,5.3495,5.346,5.3455,5.3423,5.3413,5.3399,5.3376,5.3349,5.3333,5.3318,5.3283,5.3242,5.3215,5.3196,5.3181,5.3176,5.3204,5.3182,5.3084,5.3068,5.3053,5.3049,5.3204,5.3204,5.3288,5.3289,5.3289]}]]